Location: Lafig�re
(44.4503°N, 4.0357°E)
Time: 15:43:46
(UTC+00:00)

Vanguard 2 Rocket - Pass Details

Date: 30 January 2021
Orbit: 554 x 3325 km, 32.9° (Epoch: 06 March)

Event Time Altitude Azimuth Distance (km) Brightness Sun altitude
Rises 13:58:01 0° 246° (WSW) 7,205 12.4 22.2°
Reaches altitude 10° 14:03:24 10° 241° (WSW) 5,989 12.3 21.7°
Maximum altitude 14:19:43 48° 176° (S) 2,802 10.2 20.1°
Drops below altitude 10° 14:29:46 10° 106° (ESE) 3,809 9.9 19.0°
Sets 14:32:24 0° 100° (E) 4,486 10.2 18.7°
